IFC54 VICG-VOBL

Flight info

Callsign IFC54
Flight time 2h 37m
Altitude 39000
Route CHG J21 DPN Q23 AKRIB Z16 BULDI W19 BPL W20 HIA Q21 TELUV
Aircraft B738/M-DE1E2E3FGHIJ2J5J6J7LM1OP3RUWXYZ/HB1D1

Departure

Time 2026-05-04 14:56
Airport Shaheed Bhagat Singh International Airport (VICG)

Arrival

Time 2026-05-04 17:34
Airport Kempegowda International Airport Bengaluru (VOBL)
Time Latitude Longitude Altitude Speed Heading
2026-05-04 14:42 30.67684 76.78919 1029 ft 0 kts 204°
2026-05-04 14:50 30.67661 76.78904 1029 ft 10 kts 222°
2026-05-04 14:50 30.67658 76.78824 1029 ft 12 kts 294°
2026-05-04 14:51 30.67707 76.78688 1030 ft 21 kts 293°
2026-05-04 14:51 30.67768 76.78533 1031 ft 21 kts 294°
2026-05-04 14:51 30.67792 76.78470 1032 ft 0 kts 293°
2026-05-04 14:53 30.67795 76.78462 1032 ft 8 kts 292°
2026-05-04 14:53 30.67842 76.78350 1033 ft 17 kts 294°
2026-05-04 14:53 30.67890 76.78228 1034 ft 16 kts 305°
2026-05-04 14:54 30.67936 76.78110 1035 ft 16 kts 293°
2026-05-04 14:54 30.67979 76.77996 1035 ft 15 kts 293°
2026-05-04 14:54 30.68019 76.77887 1036 ft 14 kts 293°
2026-05-04 14:54 30.68058 76.77782 1037 ft 14 kts 293°
2026-05-04 14:55 30.68038 76.77682 1038 ft 13 kts 230°
2026-05-04 14:55 30.67966 76.77621 1038 ft 13 kts 201°
2026-05-04 14:55 30.67881 76.77595 1038 ft 12 kts 184°
2026-05-04 14:55 30.67820 76.77657 1038 ft 12 kts 114°
2026-05-04 14:56 30.67780 76.77760 1036 ft 25 kts 114°
2026-05-04 14:56 30.67589 76.78254 1032 ft 108 kts 114°
2026-05-04 14:56 30.67188 76.79298 1114 ft 166 kts 114°
2026-05-04 14:56 30.66679 76.80591 1746 ft 184 kts 117°
2026-05-04 14:57 30.66141 76.81968 2653 ft 187 kts 114°
2026-05-04 14:57 30.65812 76.82888 3299 ft 189 kts 113°
2026-05-04 14:57 30.64687 76.84481 4184 ft 206 kts 148°
2026-05-04 14:57 30.63441 76.84991 4439 ft 233 kts 171°
2026-05-04 14:58 30.61892 76.84954 4973 ft 243 kts 179°
2026-05-04 14:58 30.60187 76.84846 5719 ft 245 kts 180°
2026-05-04 14:58 30.58474 76.84734 6429 ft 249 kts 180°
2026-05-04 14:58 30.57316 76.84657 6802 ft 254 kts 181°
2026-05-04 14:59 30.55536 76.84539 7406 ft 259 kts 181°
2026-05-04 14:59 30.53716 76.84422 7996 ft 265 kts 182°
2026-05-04 14:59 30.49317 76.84138 9394 ft 277 kts 185°
2026-05-04 15:00 30.48003 76.84050 9759 ft 282 kts 185°
2026-05-04 15:00 30.46030 76.83919 10322 ft 285 kts 185°
2026-05-04 15:00 30.44051 76.83788 10951 ft 285 kts 186°
2026-05-04 15:01 30.40045 76.83524 12080 ft 290 kts 186°
2026-05-04 15:01 30.38047 76.83393 12630 ft 293 kts 186°
2026-05-04 15:01 30.36002 76.83260 13206 ft 295 kts 187°
2026-05-04 15:01 30.33939 76.83127 13761 ft 298 kts 187°
2026-05-04 15:02 30.31861 76.82993 14267 ft 300 kts 187°
2026-05-04 15:02 30.29776 76.82859 14822 ft 300 kts 187°
2026-05-04 15:02 30.27678 76.82723 15345 ft 302 kts 187°
2026-05-04 15:02 30.25573 76.82588 15846 ft 304 kts 187°
2026-05-04 15:03 30.23451 76.82451 16338 ft 306 kts 187°
2026-05-04 15:03 30.21311 76.82311 16818 ft 309 kts 187°
2026-05-04 15:03 30.19145 76.82171 17241 ft 317 kts 187°
2026-05-04 15:03 30.16900 76.82021 17327 ft 338 kts 187°
2026-05-04 15:04 30.14470 76.81861 17480 ft 362 kts 187°
2026-05-04 15:04 30.11871 76.81691 17662 ft 383 kts 187°
2026-05-04 15:04 30.09137 76.81514 17807 ft 403 kts 186°
2026-05-04 15:04 30.06269 76.81332 17955 ft 421 kts 186°
2026-05-04 15:05 30.03288 76.81145 18078 ft 437 kts 186°
2026-05-04 15:05 30.00213 76.80948 18231 ft 449 kts 186°
2026-05-04 15:05 29.97071 76.80746 18586 ft 453 kts 186°
2026-05-04 15:05 29.93909 76.80545 19092 ft 454 kts 187°
2026-05-04 15:06 29.90753 76.80345 19598 ft 455 kts 187°
2026-05-04 15:06 29.87590 76.80143 20048 ft 457 kts 187°
2026-05-04 15:06 29.84410 76.79940 20466 ft 459 kts 187°
2026-05-04 15:07 29.78018 76.79531 21279 ft 464 kts 187°
2026-05-04 15:07 29.74786 76.79330 21677 ft 466 kts 187°
2026-05-04 15:07 29.71536 76.79245 22041 ft 470 kts 185°
2026-05-04 15:07 29.68246 76.79310 22417 ft 474 kts 183°
2026-05-04 15:08 29.64939 76.79441 22776 ft 477 kts 183°
2026-05-04 15:08 29.61617 76.79590 23142 ft 478 kts 183°
2026-05-04 15:08 29.58293 76.79731 23482 ft 479 kts 183°
2026-05-04 15:08 29.54956 76.79860 23768 ft 480 kts 183°
2026-05-04 15:09 29.51610 76.79980 24063 ft 480 kts 183°
2026-05-04 15:09 29.48256 76.80089 24336 ft 481 kts 184°
2026-05-04 15:09 29.44905 76.80190 24610 ft 482 kts 184°
2026-05-04 15:10 29.38240 76.80382 25284 ft 480 kts 184°
2026-05-04 15:10 29.34909 76.80477 25708 ft 478 kts 184°
2026-05-04 15:10 29.28280 76.80665 26481 ft 475 kts 184°
2026-05-04 15:11 29.24981 76.80757 26872 ft 474 kts 184°
2026-05-04 15:11 29.21686 76.80850 27294 ft 472 kts 184°
2026-05-04 15:11 29.18410 76.80944 27724 ft 470 kts 184°
2026-05-04 15:11 29.15146 76.81038 28153 ft 469 kts 184°
2026-05-04 15:12 29.11895 76.81133 28558 ft 468 kts 184°
2026-05-04 15:12 29.08636 76.81228 28999 ft 466 kts 184°
2026-05-04 15:12 29.05400 76.81322 29461 ft 464 kts 184°
2026-05-04 15:12 29.02172 76.81416 29921 ft 462 kts 184°
2026-05-04 15:13 28.98957 76.81510 30321 ft 460 kts 184°
2026-05-04 15:13 28.95763 76.81604 30757 ft 457 kts 184°
2026-05-04 15:13 28.92596 76.81696 31219 ft 454 kts 184°
2026-05-04 15:13 28.89457 76.81786 31670 ft 451 kts 184°
2026-05-04 15:14 28.86363 76.81916 32093 ft 452 kts 180°
2026-05-04 15:14 28.83262 76.82686 32481 ft 462 kts 167°
2026-05-04 15:14 28.80316 76.84204 32924 ft 469 kts 156°
2026-05-04 15:14 28.77664 76.86422 33352 ft 477 kts 144°
2026-05-04 15:15 28.75537 76.88720 33740 ft 477 kts 142°
2026-05-04 15:15 28.73183 76.91384 34081 ft 476 kts 141°
2026-05-04 15:15 28.70837 76.94043 34347 ft 476 kts 142°
2026-05-04 15:16 28.66076 76.99287 34890 ft 475 kts 143°
2026-05-04 15:16 28.63689 77.01865 35170 ft 474 kts 143°
2026-05-04 15:16 28.58825 77.06559 35616 ft 459 kts 160°
2026-05-04 15:17 28.55900 77.07788 35875 ft 441 kts 175°
2026-05-04 15:17 28.50031 77.07811 36393 ft 416 kts 199°
2026-05-04 15:17 28.47219 77.07074 36649 ft 415 kts 200°
2026-05-04 15:18 28.44410 77.06313 36913 ft 414 kts 199°
2026-05-04 15:18 28.41607 77.05555 37198 ft 413 kts 200°
2026-05-04 15:18 28.38812 77.04806 37461 ft 412 kts 200°
2026-05-04 15:19 28.33232 77.03337 37969 ft 411 kts 199°
2026-05-04 15:19 28.30438 77.02609 38174 ft 412 kts 200°
2026-05-04 15:19 28.24840 77.01162 38618 ft 411 kts 199°
2026-05-04 15:20 28.22052 77.00445 38762 ft 411 kts 199°
2026-05-04 15:20 28.19256 76.99724 38806 ft 412 kts 199°
2026-05-04 15:20 28.13701 76.98294 38841 ft 412 kts 199°
2026-05-04 15:21 28.08080 76.96847 38833 ft 415 kts 199°
2026-05-04 15:22 27.99597 76.94676 38841 ft 417 kts 199°
2026-05-04 15:22 27.91134 76.92512 38850 ft 415 kts 199°
2026-05-04 15:23 27.85498 76.91070 38846 ft 415 kts 199°
2026-05-04 15:23 27.79857 76.89624 38846 ft 415 kts 199°
2026-05-04 15:24 27.68623 76.86752 38851 ft 414 kts 198°
2026-05-04 15:25 27.62990 76.85314 38847 ft 414 kts 198°
2026-05-04 15:26 27.54589 76.83176 38851 ft 415 kts 198°
2026-05-04 15:26 27.46125 76.81024 38858 ft 417 kts 198°
2026-05-04 15:27 27.37365 76.79983 38857 ft 432 kts 184°
2026-05-04 15:28 27.28284 76.80464 38841 ft 438 kts 184°
2026-05-04 15:29 27.19111 76.80904 38841 ft 445 kts 184°
2026-05-04 15:30 26.97059 76.81888 38807 ft 460 kts 184°
2026-05-04 15:31 26.87427 76.82318 38801 ft 462 kts 184°
2026-05-04 15:32 26.71424 76.83030 38800 ft 460 kts 185°
2026-05-04 15:34 26.55447 76.83737 38795 ft 458 kts 185°
2026-05-04 15:34 26.45906 76.84158 38796 ft 457 kts 185°
2026-05-04 15:35 26.36386 76.84577 38796 ft 456 kts 185°
2026-05-04 15:36 26.26902 76.84993 38788 ft 456 kts 185°
2026-05-04 15:36 26.20548 76.85272 38790 ft 457 kts 185°
2026-05-04 15:37 26.14197 76.85551 38799 ft 456 kts 185°
2026-05-04 15:37 26.07835 76.85829 38785 ft 457 kts 185°
2026-05-04 15:38 26.01533 76.86105 38790 ft 457 kts 185°
2026-05-04 15:38 25.95167 76.86383 38793 ft 457 kts 185°
2026-05-04 15:39 25.88811 76.86661 38792 ft 457 kts 185°
2026-05-04 15:40 25.79272 76.87078 38793 ft 457 kts 185°
2026-05-04 15:40 25.72962 76.87358 38794 ft 456 kts 185°
2026-05-04 15:41 25.66612 76.87636 38791 ft 456 kts 185°
2026-05-04 15:41 25.60262 76.87915 38796 ft 456 kts 185°
2026-05-04 15:42 25.53918 76.88184 38792 ft 456 kts 185°
2026-05-04 15:42 25.47575 76.88454 38791 ft 456 kts 185°
2026-05-04 15:43 25.41272 76.88727 38800 ft 456 kts 185°
2026-05-04 15:43 25.34934 76.89002 38799 ft 455 kts 185°
2026-05-04 15:44 25.28602 76.89276 38793 ft 455 kts 185°
2026-05-04 15:44 25.22258 76.89550 38793 ft 455 kts 185°
2026-05-04 15:45 25.15922 76.89823 38794 ft 455 kts 185°
2026-05-04 15:45 25.09585 76.90096 38794 ft 455 kts 185°
2026-05-04 15:46 25.03294 76.90367 38796 ft 456 kts 185°
2026-05-04 15:46 24.96954 76.90641 38795 ft 456 kts 185°
2026-05-04 15:47 24.90611 76.90923 38798 ft 456 kts 185°
2026-05-04 15:47 24.85293 76.91159 38796 ft 457 kts 185°
2026-05-04 15:48 24.78980 76.91439 38796 ft 457 kts 185°
2026-05-04 15:48 24.69452 76.91860 38798 ft 456 kts 185°
2026-05-04 15:49 24.63103 76.92140 38803 ft 456 kts 185°
2026-05-04 15:49 24.56757 76.92420 38799 ft 456 kts 185°
2026-05-04 15:50 24.50420 76.92699 38807 ft 456 kts 185°
2026-05-04 15:50 24.44075 76.92978 38807 ft 456 kts 185°
2026-05-04 15:51 24.37756 76.94221 38810 ft 470 kts 169°
2026-05-04 15:51 24.31586 76.96496 38804 ft 471 kts 168°
2026-05-04 15:52 24.25343 76.98843 38815 ft 471 kts 168°
2026-05-04 15:52 24.19178 77.01107 38805 ft 470 kts 168°
2026-05-04 15:53 24.12960 77.03355 38816 ft 470 kts 169°
2026-05-04 15:53 24.06775 77.05583 38818 ft 470 kts 169°
2026-05-04 15:54 24.00575 77.07815 38816 ft 470 kts 169°
2026-05-04 15:54 23.94355 77.10053 38819 ft 470 kts 168°
2026-05-04 15:55 23.88122 77.12295 38819 ft 471 kts 168°
2026-05-04 15:55 23.81905 77.14529 38821 ft 471 kts 169°
2026-05-04 15:56 23.75651 77.16774 38826 ft 472 kts 168°
2026-05-04 15:56 23.69415 77.19010 38842 ft 472 kts 168°
2026-05-04 15:57 23.63205 77.21235 38829 ft 473 kts 168°
2026-05-04 15:57 23.56950 77.23473 38835 ft 473 kts 168°
2026-05-04 15:58 23.50695 77.25710 38845 ft 473 kts 168°
2026-05-04 15:58 23.44460 77.27937 38854 ft 472 kts 168°
2026-05-04 15:59 23.38193 77.30173 38849 ft 472 kts 168°
2026-05-04 15:59 23.32001 77.32381 38850 ft 471 kts 168°
2026-05-04 16:00 23.25736 77.34318 38857 ft 463 kts 176°
2026-05-04 16:00 23.19395 77.35556 38847 ft 461 kts 177°
2026-05-04 16:01 23.13053 77.36744 38847 ft 461 kts 177°
2026-05-04 16:01 23.06762 77.37958 38837 ft 462 kts 176°
2026-05-04 16:02 23.00435 77.39203 38823 ft 462 kts 176°
2026-05-04 16:03 22.90932 77.41079 38806 ft 462 kts 177°
2026-05-04 16:03 22.84626 77.42322 38809 ft 463 kts 176°
2026-05-04 16:04 22.78275 77.43571 38804 ft 464 kts 176°
2026-05-04 16:04 22.68725 77.45447 38803 ft 465 kts 176°
2026-05-04 16:05 22.62372 77.46694 38803 ft 466 kts 176°
2026-05-04 16:06 22.52789 77.48573 38799 ft 466 kts 176°
2026-05-04 16:07 22.40061 77.51065 38801 ft 466 kts 176°
2026-05-04 16:08 22.27291 77.53560 38813 ft 466 kts 176°
2026-05-04 16:09 22.11361 77.56665 38826 ft 465 kts 176°
2026-05-04 16:10 21.98614 77.59118 38835 ft 465 kts 175°
2026-05-04 16:11 21.85904 77.61556 38841 ft 465 kts 175°
2026-05-04 16:12 21.66782 77.65220 38834 ft 465 kts 175°
2026-05-04 16:13 21.54084 77.67649 38834 ft 465 kts 175°
2026-05-04 16:14 21.41341 77.70170 38815 ft 465 kts 174°
2026-05-04 16:16 21.25490 77.73370 38797 ft 465 kts 174°
2026-05-04 16:17 21.09577 77.76561 38784 ft 464 kts 174°
2026-05-04 16:18 20.96888 77.79102 38773 ft 464 kts 174°
2026-05-04 16:19 20.81033 77.82354 38770 ft 464 kts 173°
2026-05-04 16:20 20.65207 77.85597 38765 ft 463 kts 174°
2026-05-04 16:22 20.49311 77.88499 38769 ft 463 kts 173°
2026-05-04 16:23 20.30331 77.92201 38770 ft 462 kts 173°
2026-05-04 16:25 20.11381 77.95870 38767 ft 462 kts 173°
2026-05-04 16:26 19.89273 78.00138 38771 ft 461 kts 173°
2026-05-04 16:28 19.73534 78.03169 38775 ft 460 kts 173°
2026-05-04 16:29 19.51491 78.07405 38778 ft 460 kts 173°
2026-05-04 16:31 19.35762 78.10420 38784 ft 460 kts 172°
2026-05-04 16:32 19.16824 78.13737 38788 ft 459 kts 175°
2026-05-04 16:33 19.04170 78.15420 38784 ft 459 kts 175°
2026-05-04 16:34 18.94717 78.16738 38783 ft 458 kts 175°
2026-05-04 16:35 18.75735 78.19420 38800 ft 458 kts 174°
2026-05-04 16:36 18.66294 78.20735 38801 ft 458 kts 174°
2026-05-04 16:37 18.56826 78.22059 38821 ft 458 kts 174°
2026-05-04 16:38 18.45196 78.23694 38829 ft 458 kts 174°
2026-05-04 16:39 18.29430 78.25891 38844 ft 459 kts 174°
2026-05-04 16:40 18.16777 78.27645 38848 ft 460 kts 174°
2026-05-04 16:41 18.00904 78.29846 38856 ft 461 kts 174°
2026-05-04 16:43 17.85023 78.32043 38867 ft 462 kts 174°
2026-05-04 16:43 17.75444 78.33370 38878 ft 462 kts 174°
2026-05-04 16:45 17.59240 78.35623 38883 ft 463 kts 174°
2026-05-04 16:46 17.43302 78.37819 38886 ft 462 kts 174°
2026-05-04 16:47 17.30730 78.39540 38914 ft 462 kts 174°
2026-05-04 16:48 17.17981 78.41216 38910 ft 462 kts 175°
2026-05-04 16:49 17.05185 78.42530 38903 ft 461 kts 176°
2026-05-04 16:50 16.92918 78.43829 38888 ft 461 kts 175°
2026-05-04 16:51 16.83336 78.44855 38886 ft 461 kts 175°
2026-05-04 16:52 16.70589 78.46218 38877 ft 462 kts 175°
2026-05-04 16:53 16.60990 78.47244 38870 ft 462 kts 175°
2026-05-04 16:54 16.48190 78.48604 38872 ft 462 kts 175°
2026-05-04 16:55 16.29011 78.50641 38873 ft 462 kts 175°
2026-05-04 16:56 16.13366 78.50414 38868 ft 459 kts 190°
2026-05-04 16:57 16.04015 78.48812 38874 ft 459 kts 190°
2026-05-04 16:58 15.91402 78.46764 38865 ft 460 kts 189°
2026-05-04 17:00 15.72435 78.43710 38869 ft 460 kts 190°
2026-05-04 17:01 15.56601 78.41158 38871 ft 460 kts 190°
2026-05-04 17:02 15.44194 78.39169 38869 ft 460 kts 190°
2026-05-04 17:03 15.34688 78.37644 38861 ft 461 kts 190°
2026-05-04 17:03 15.25194 78.36122 38861 ft 459 kts 190°
2026-05-04 17:04 15.12561 78.34109 38869 ft 459 kts 190°
2026-05-04 17:05 14.99976 78.32102 38868 ft 459 kts 190°
2026-05-04 17:06 14.90496 78.30589 38872 ft 459 kts 190°
2026-05-04 17:07 14.82071 78.29247 38876 ft 460 kts 190°
2026-05-04 17:07 14.74709 78.28072 38878 ft 460 kts 190°
2026-05-04 17:08 14.65219 78.26552 38883 ft 460 kts 190°
2026-05-04 17:09 14.58893 78.25539 38876 ft 460 kts 190°
2026-05-04 17:09 14.52563 78.24525 38891 ft 459 kts 190°
2026-05-04 17:10 14.36764 78.21998 38117 ft 465 kts 190°
2026-05-04 17:11 14.33582 78.21489 37484 ft 462 kts 190°
2026-05-04 17:11 14.30404 78.20981 36821 ft 461 kts 190°
2026-05-04 17:11 14.24083 78.19970 35438 ft 460 kts 190°
2026-05-04 17:12 14.20911 78.19463 34658 ft 462 kts 190°
2026-05-04 17:12 14.14599 78.18117 32865 ft 466 kts 204°
2026-05-04 17:13 14.06201 78.13991 30189 ft 473 kts 206°
2026-05-04 17:14 13.97081 78.09548 26763 ft 481 kts 206°
2026-05-04 17:14 13.94041 78.08090 25668 ft 483 kts 206°
2026-05-04 17:14 13.88002 78.05202 23935 ft 476 kts 206°
2026-05-04 17:15 13.85004 78.03768 22980 ft 473 kts 206°
2026-05-04 17:15 13.79095 78.00941 21183 ft 463 kts 206°
2026-05-04 17:16 13.73303 77.98169 19481 ft 455 kts 205°
2026-05-04 17:16 13.64811 77.94111 16941 ft 446 kts 205°
2026-05-04 17:17 13.61983 77.92772 16233 ft 437 kts 205°
2026-05-04 17:17 13.55172 77.89557 14889 ft 415 kts 205°
2026-05-04 17:18 13.52607 77.88346 14772 ft 397 kts 205°
2026-05-04 17:18 13.47794 77.86073 14587 ft 366 kts 205°
2026-05-04 17:19 13.43360 77.83978 14455 ft 341 kts 205°
2026-05-04 17:19 13.39499 77.82154 14339 ft 321 kts 205°
2026-05-04 17:20 13.35562 77.80296 14222 ft 299 kts 205°
2026-05-04 17:20 13.32139 77.78308 13942 ft 276 kts 230°
2026-05-04 17:20 13.31448 77.77236 13782 ft 270 kts 246°
2026-05-04 17:21 13.30976 77.72904 13010 ft 263 kts 272°
2026-05-04 17:21 13.31037 77.69111 12339 ft 261 kts 272°
2026-05-04 17:22 13.31059 77.67255 12035 ft 259 kts 272°
2026-05-04 17:22 13.31071 77.66029 11833 ft 258 kts 272°
2026-05-04 17:23 13.31116 77.60535 10952 ft 254 kts 272°
2026-05-04 17:23 13.31129 77.58725 10665 ft 253 kts 272°
2026-05-04 17:23 13.31157 77.55106 10144 ft 250 kts 272°
2026-05-04 17:24 13.31170 77.53329 9898 ft 248 kts 272°
2026-05-04 17:24 13.31201 77.48149 9281 ft 233 kts 271°
2026-05-04 17:25 13.31168 77.46489 9079 ft 230 kts 270°
2026-05-04 17:25 13.31071 77.43220 8384 ft 221 kts 266°
2026-05-04 17:26 13.29406 77.40930 8306 ft 209 kts 211°
2026-05-04 17:26 13.25294 77.40831 7612 ft 210 kts 140°
2026-05-04 17:27 13.23142 77.42730 7457 ft 195 kts 137°
2026-05-04 17:27 13.21172 77.44782 7235 ft 205 kts 110°
2026-05-04 17:28 13.20927 77.47606 6822 ft 191 kts 90°
2026-05-04 17:29 13.20872 77.51232 6193 ft 151 kts 90°
2026-05-04 17:29 13.20842 77.54446 5641 ft 154 kts 91°
2026-05-04 17:30 13.20813 77.57694 5073 ft 152 kts 92°
2026-05-04 17:31 13.20795 77.59851 4678 ft 149 kts 93°
2026-05-04 17:31 13.20765 77.63031 4115 ft 146 kts 92°
2026-05-04 17:32 13.20747 77.65114 3745 ft 147 kts 93°
2026-05-04 17:33 13.20729 77.68129 3165 ft 136 kts 93°
2026-05-04 17:33 13.20717 77.69072 3012 ft 126 kts 91°
2026-05-04 17:34 13.20705 77.70287 3010 ft 25 kts 90°
2026-05-04 17:34 13.20679 77.70462 3010 ft 24 kts 108°
2026-05-04 17:35 13.20528 77.70852 3012 ft 16 kts 106°
2026-05-04 17:35 13.20499 77.70885 3010 ft 0 kts 173°
2026-05-04 17:35 13.20497 77.70885 3010 ft 0 kts 177°
2026-05-04 17:36 13.20496 77.70885 3010 ft 0 kts 177°
2026-05-04 17:36 13.20483 77.70885 3010 ft 13 kts 177°
2026-05-04 17:36 13.20411 77.70898 3010 ft 0 kts 180°
2026-05-04 17:37 13.20408 77.70897 3010 ft 1 kts 181°
2026-05-04 17:37 13.20406 77.70897 3010 ft 0 kts 181°